Wautoma, WI

5:31 AM CST on November 23, 2017 (GMT -0600)
Wautoma

Weather History for KY50 - March, 2013

Change the Weather History Date:

Saturday, March 30, 2013

  Actual Average (KPCZ) Record (KPCZ)
Temperature  
Mean Temperature 36 °F -  
Max Temperature 48 °F 48 °F 84 °F (1986)
Min Temperature 26 °F 29 °F 1 °F (1969)
Degree Days  
Heating Degree Days 28    
Moisture  
Dew Point 33 °F    
Average Humidity 85    
Maximum Humidity 100    
Minimum Humidity 52    
Precipitation  
Precipitation 0.08 in - - ()
Sea Level Pressure  
Sea Level Pressure 29.93 in    
Wind  
Wind Speed 4 mph (SW)    
Max Wind Speed 10 mph    
Max Gust Speed -    
Visibility 6 miles    
Events Rain    
Averages and records for this station are not official NWS values.
T = Trace of Precipitation, MM = Missing Value Source: NWS Daily Summary

Daily Weather History Graph

Daily Weather History Graph

Search for Another Location

Airport or City:

Trip Planner

Search our weather history database for the weather conditions in past years. The results will help you decide how hot, cold, wet, or windy it might be!

Date:

Astronomy

Mar. 30, 2013 Rise Set
Actual Time 6:41 AM CDT 7:22 PM CDT
Civil Twilight 6:12 AM CDT 7:51 PM CDT
Nautical Twilight 5:38 AM CDT 8:25 PM CDT
Astronomical Twilight 5:02 AM CDT 9:01 PM CDT
Moon 11:37 PM CDT (3/30) 8:28 AM CDT (3/30)
Length of Visible Light 13h 38m
Length of Day
12h 40m
Waning Gibbous, 86% of the Moon is Illuminated
Mar 30
Waning Gibbous
Apr 2
Last Quarter
Apr 10
New
Apr 18
First Quarter
Apr 25
Full

Hourly Weather History & Observations

Time (CDT) Temp. Windchill Dew Point Humidity Pressure Visibility Wind Dir Wind Speed Gust Speed Precip Events Conditions
12:56 AM 26.1 °F - 23.0 °F 88% 30.22 in 10.0 mi Calm Calm - N/A   Mostly Cloudy
1:56 AM 27.1 °F - 22.1 °F 81% 30.20 in 10.0 mi Calm Calm - N/A   Overcast
2:56 AM 27.1 °F - 23.0 °F 84% 30.18 in 10.0 mi Calm Calm - N/A   Overcast
3:56 AM 27.1 °F - 24.1 °F 88% 30.16 in 10.0 mi Calm Calm - N/A   Mostly Cloudy
4:56 AM 28.0 °F - 23.0 °F 81% 30.14 in 10.0 mi Calm Calm - N/A   Overcast
5:56 AM 29.1 °F - 25.2 °F 85% 30.13 in 10.0 mi Calm Calm - N/A   Partly Cloudy
6:56 AM 30.0 °F - 23.0 °F 75% 30.10 in 10.0 mi Calm Calm - N/A   Clear
7:56 AM 31.1 °F - 25.2 °F 79% 30.09 in 10.0 mi Calm Calm - N/A   Overcast
8:56 AM 36.9 °F 30.7 °F 24.1 °F 60% 30.06 in 10.0 mi South 8.1 mph - N/A   Scattered Clouds
9:56 AM 37.9 °F 31.5 °F 24.1 °F 57% 30.03 in 10.0 mi South 9.2 mph - N/A   Overcast
10:56 AM 38.8 °F 33.2 °F 26.1 °F 60% 30.01 in 10.0 mi South 8.1 mph - N/A   Overcast
11:56 AM 41.0 °F 35.8 °F 27.1 °F 58% 30.00 in 10.0 mi South 8.1 mph - N/A   Overcast
12:56 PM 41.9 °F 36.3 °F 29.1 °F 61% 29.96 in 10.0 mi South 9.2 mph - N/A   Mostly Cloudy
1:56 PM 43.9 °F 39.3 °F 31.1 °F 61% 29.92 in 10.0 mi South 8.1 mph - N/A   Mostly Cloudy
2:56 PM 47.8 °F - 31.1 °F 52% 29.90 in 10.0 mi SSW 10.4 mph - N/A   Mostly Cloudy
3:56 PM 46.9 °F - 31.1 °F 54% 29.87 in 10.0 mi SSW 10.4 mph - N/A   Overcast
4:56 PM 45.0 °F 40.1 °F 32.0 °F 60% 29.87 in 10.0 mi SW 9.2 mph - N/A   Overcast
5:18 PM 42.8 °F 37.0 °F 35.6 °F 76% 29.87 in 1.8 mi WSW 10.4 mph - 0.02 in Rain Light Rain
5:22 PM 42.8 °F 37.5 °F 35.6 °F 76% 29.87 in 1.2 mi West 9.2 mph - 0.03 in Rain Light Rain
5:56 PM 39.9 °F 36.7 °F 38.8 °F 96% 29.88 in 1.8 mi SW 4.6 mph - 0.08 in Rain Light Rain
6:02 PM 41.0 °F 39.0 °F 39.2 °F 93% 29.86 in 2.0 mi SSW 3.5 mph - 0.00 in Rain Light Rain
6:56 PM 39.2 °F 35.0 °F 39.2 °F 100% 29.83 in 3.0 mi South 5.8 mph - N/A Rain Light Rain
7:34 PM 42.8 °F 39.3 °F 39.2 °F 87% 29.82 in 6.0 mi SSW 5.8 mph - 0.00 in   Overcast
7:56 PM 39.9 °F 36.7 °F 38.8 °F 96% 29.84 in 5.0 mi WSW 4.6 mph - 0.00 in   Overcast
8:27 PM 39.2 °F 35.9 °F 39.2 °F 100% 29.82 in 2.0 mi SW 4.6 mph - N/A   Overcast
8:56 PM 39.9 °F 35.1 °F 39.9 °F 100% 29.83 in 1.8 mi WSW 6.9 mph - N/A   Overcast
9:14 PM 39.2 °F 34.2 °F 39.2 °F 100% 29.82 in 1.2 mi WSW 6.9 mph - N/A   Overcast
9:22 PM 39.2 °F 33.0 °F 39.2 °F 100% 29.82 in 1.2 mi WSW 9.2 mph - N/A   Overcast
9:30 PM 39.2 °F 33.0 °F 39.2 °F 100% 29.82 in 1.5 mi WSW 9.2 mph - N/A   Overcast
9:34 PM 39.2 °F 33.0 °F 39.2 °F 100% 29.82 in 1.2 mi WSW 9.2 mph - N/A   Overcast
9:56 PM 39.9 °F 33.4 °F 39.9 °F 100% 29.84 in 1.0 mi WNW 10.4 mph - N/A   Overcast
10:02 PM 39.2 °F 32.5 °F 39.2 °F 100% 29.82 in 1.2 mi WNW 10.4 mph - N/A   Overcast
10:09 PM 39.2 °F 33.0 °F 39.2 °F 100% 29.82 in 2.0 mi WNW 9.2 mph - N/A   Overcast
10:18 PM 39.2 °F 33.6 °F 39.2 °F 100% 29.82 in 3.0 mi West 8.1 mph - N/A   Overcast
10:27 PM 37.4 °F 31.4 °F 37.4 °F 100% 29.82 in 2.5 mi West 8.1 mph - N/A   Overcast
10:56 PM 37.9 °F 32.1 °F 37.9 °F 100% 29.83 in 3.0 mi West 8.1 mph - N/A   Overcast
11:10 PM 37.4 °F 32.1 °F 37.4 °F 100% 29.82 in 3.0 mi WNW 6.9 mph - N/A   Overcast
11:37 PM 37.4 °F 33.8 °F 37.4 °F 100% 29.81 in 4.0 mi WNW 4.6 mph - N/A   Overcast
11:56 PM 36.9 °F 32.2 °F 36.9 °F 100% 29.83 in 4.0 mi WNW 5.8 mph - N/A   Overcast